�������l�o���
Date,Time,MP-1(��Sv/h),MP-2(��Sv/h),MP-3(��Sv/h),MP-4(��Sv/h),MP-5(��Sv/h),MP-6(��Sv/h),MP-7(��Sv/h),MP-8(��Sv/h),����,����(m/s),���J
2023/10/02,00:00,0.514,0.781,0.483,0.971,0.697,0.318,0.567,0.527,�k��,2.9,��
2023/10/02,00:10,0.514,0.779,0.483,0.970,0.698,0.318,0.568,0.526,�k��,2.9,��
2023/10/02,00:20,0.515,0.782,0.482,0.971,0.698,0.318,0.570,0.527,�k�k��,5.3,��
2023/10/02,00:30,0.515,0.781,0.483,0.973,0.698,0.317,0.567,0.527,�k�k��,5.5,��
2023/10/02,00:40,0.515,0.779,0.483,0.971,0.697,0.317,0.568,0.528,�k,5.3,��
2023/10/02,00:50,0.514,0.781,0.484,0.972,0.696,0.317,0.569,0.528,�k�k��,6.5,��
2023/10/02,01:00,0.514,0.780,0.482,0.973,0.698,0.319,0.567,0.528,�k�k��,5.4,��
2023/10/02,01:10,0.513,0.782,0.483,0.969,0.699,0.317,0.567,0.527,�k�k��,5.4,��
2023/10/02,01:20,0.515,0.781,0.483,0.970,0.700,0.318,0.567,0.528,�k��,6.0,��
2023/10/02,01:30,0.514,0.781,0.484,0.971,0.697,0.317,0.567,0.528,�k��,7.0,��
2023/10/02,01:40,0.514,0.781,0.484,0.973,0.698,0.317,0.568,0.528,�k��,5.6,��
2023/10/02,01:50,0.515,0.781,0.484,0.973,0.699,0.317,0.567,0.527,�k�k��,5.2,��
2023/10/02,02:00,0.514,0.782,0.483,0.970,0.698,0.317,0.569,0.527,�k�k��,6.6,��
2023/10/02,02:10,0.514,0.782,0.482,0.971,0.698,0.318,0.568,0.528,�k��,6.1,��
2023/10/02,02:20,0.514,0.781,0.482,0.972,0.698,0.318,0.565,0.528,�k��,6.5,��
2023/10/02,02:30,0.516,0.783,0.484,0.973,0.698,0.317,0.566,0.528,�k��,5.1,��
2023/10/02,02:40,0.516,0.782,0.482,0.971,0.697,0.318,0.566,0.527,�k��,6.6,��
2023/10/02,02:50,0.514,0.780,0.482,0.973,0.698,0.317,0.566,0.528,�k��,7.2,��
2023/10/02,03:00,0.514,0.781,0.482,0.973,0.698,0.317,0.565,0.528,�k��,6.7,��
2023/10/02,03:10,0.514,0.782,0.483,0.973,0.698,0.318,0.565,0.527,�k��,6.3,��
2023/10/02,03:20,0.514,0.780,0.484,0.971,0.698,0.318,0.565,0.528,�k��,5.8,��
2023/10/02,03:30,0.513,0.782,0.483,0.973,0.699,0.317,0.565,0.527,�k��,5.4,��
2023/10/02,03:40,0.514,0.782,0.484,0.972,0.699,0.318,0.567,0.528,�k��,5.7,��
2023/10/02,03:50,0.516,0.782,0.483,0.972,0.699,0.318,0.568,0.528,�k��,5.5,��
2023/10/02,04:00,0.514,0.781,0.483,0.974,0.698,0.317,0.568,0.528,�k��,4.4,��
2023/10/02,04:10,0.514,0.779,0.482,0.973,0.699,0.319,0.566,0.528,�k��,4.0,��
2023/10/02,04:20,0.514,0.779,0.484,0.972,0.700,0.318,0.568,0.528,�k��,4.8,��
2023/10/02,04:30,0.516,0.781,0.482,0.973,0.700,0.318,0.568,0.527,�k��,3.9,��
2023/10/02,04:40,0.513,0.781,0.482,0.972,0.697,0.317,0.566,0.527,�k��,3.2,��
2023/10/02,04:50,0.515,0.781,0.483,0.974,0.700,0.318,0.565,0.527,�k��,2.9,��
2023/10/02,05:00,0.513,0.781,0.481,0.973,0.699,0.317,0.567,0.528,�k��,4.3,��
2023/10/02,05:10,0.514,0.782,0.482,0.972,0.697,0.317,0.569,0.527,�k��,5.4,��
2023/10/02,05:20,0.515,0.781,0.482,0.972,0.699,0.318,0.567,0.528,�k��,3.8,��
2023/10/02,05:30,0.513,0.781,0.482,0.972,0.698,0.317,0.568,0.526,�k��,4.2,��
2023/10/02,05:40,0.514,0.782,0.483,0.971,0.699,0.319,0.568,0.527,�k��,4.5,��
2023/10/02,05:50,0.514,0.782,0.484,0.971,0.699,0.318,0.568,0.529,�k��,4.5,��
2023/10/02,06:00,0.511,0.780,0.482,0.972,0.699,0.317,0.567,0.527,�k��,4.3,��
2023/10/02,06:10,0.513,0.780,0.482,0.975,0.699,0.317,0.568,0.529,�k��,4.3,��
2023/10/02,06:20,0.515,0.783,0.483,0.972,0.696,0.317,0.567,0.526,�k��,4.0,��
2023/10/02,06:30,0.516,0.782,0.482,0.971,0.697,0.317,0.568,0.529,�k��,5.2,��
2023/10/02,06:40,0.513,0.783,0.482,0.974,0.697,0.317,0.567,0.527,�k��,5.0,��
2023/10/02,06:50,0.513,0.781,0.482,0.972,0.699,0.318,0.568,0.527,�k�k��,3.2,��
2023/10/02,07:00,0.515,0.782,0.482,0.972,0.698,0.318,0.568,0.526,�k�k��,2.2,��
2023/10/02,07:10,0.514,0.782,0.483,0.974,0.698,0.317,0.568,0.527,�k��,2.2,��
2023/10/02,07:20,0.513,0.783,0.483,0.974,0.698,0.318,0.569,0.527,�k��,1.7,��
2023/10/02,07:30,0.514,0.784,0.483,0.972,0.698,0.317,0.570,0.527,�k��,0.8,��
2023/10/02,07:40,0.514,0.782,0.483,0.976,0.699,0.317,0.569,0.528,�k�k��,2.9,��
2023/10/02,07:50,0.515,0.783,0.483,0.972,0.698,0.318,0.569,0.529,�k�k��,3.7,��
2023/10/02,08:00,0.514,0.782,0.482,0.975,0.699,0.318,0.568,0.527,�k��,4.6,��
2023/10/02,08:10,0.514,0.780,0.483,0.974,0.697,0.317,0.568,0.528,�k��,4.4,��
2023/10/02,08:20,0.515,0.781,0.481,0.973,0.697,0.318,0.568,0.528,�k�k��,5.2,��
2023/10/02,08:30,0.514,0.780,0.484,0.974,0.698,0.317,0.566,0.527,�k�k��,5.1,��
2023/10/02,08:40,0.513,0.780,0.484,0.975,0.697,0.317,0.566,0.527,�k�k��,3.7,��
2023/10/02,08:50,0.513,0.780,0.483,0.975,0.700,0.318,0.567,0.529,�k��,3.5,��
2023/10/02,09:00,0.513,0.779,0.484,0.973,0.698,0.317,0.567,0.529,�k�k��,2.3,��
2023/10/02,09:10,0.515,0.781,0.486,0.974,0.696,0.317,0.568,0.528,�k�k��,4.4,��
2023/10/02,09:20,0.514,0.781,0.484,0.976,0.692,0.317,0.569,0.526,�k��,4.2,��
2023/10/02,09:30,0.515,0.781,0.483,0.975,0.695,0.315,0.567,0.527,�k,2.9,��
2023/10/02,09:40,0.516,0.782,0.484,0.977,0.697,0.317,0.567,0.526,�k,3.4,��
2023/10/02,09:50,0.514,0.783,0.483,0.976,0.699,0.317,0.569,0.526,�k,3.5,��
2023/10/02,10:00,0.516,0.781,0.484,0.979,0.698,0.316,0.568,0.527,�k��,2.9,��
2023/10/02,10:10,0.516,0.783,0.483,0.975,0.699,0.317,0.569,0.525,�k�k��,1.2,��
2023/10/02,10:20,0.516,0.782,0.485,0.974,0.701,0.317,0.567,0.527,�k,2.5,��
2023/10/02,10:30,0.518,0.783,0.481,0.978,0.702,0.317,0.568,0.528,�k�k��,1.7,��
2023/10/02,10:40,0.517,0.781,0.483,0.976,0.700,0.316,0.567,0.527,��,4.6,��
2023/10/02,10:50,0.517,0.783,0.485,0.978,0.700,0.318,0.568,0.528,���k��,6.7,��
2023/10/02,11:00,0.515,0.784,0.484,0.977,0.702,0.318,0.568,0.528,���k��,4.6,��
2023/10/02,11:10,0.516,0.784,0.484,0.978,0.703,0.317,0.568,0.528,���k��,6.1,��
2023/10/02,11:20,0.519,0.783,0.484,0.980,0.703,0.317,0.569,0.526,��,6.8,��
2023/10/02,11:30,0.519,0.786,0.486,0.980,0.704,0.317,0.568,0.528,��,6.5,��
2023/10/02,11:40,0.518,0.785,0.486,0.978,0.705,0.317,0.568,0.528,��,6.6,��
2023/10/02,11:50,0.519,0.787,0.485,0.980,0.704,0.317,0.568,0.528,���k��,8.2,��
2023/10/02,12:00,0.518,0.788,0.485,0.979,0.703,0.318,0.568,0.528,���k��,7.2,��
2023/10/02,12:10,0.518,0.786,0.486,0.978,0.704,0.317,0.568,0.527,�k��,5.2,��
2023/10/02,12:20,0.520,0.787,0.487,0.978,0.705,0.317,0.569,0.528,�k��,6.4,��
2023/10/02,12:30,0.520,0.790,0.487,0.981,0.702,0.318,0.568,0.527,�k��,5.1,��
2023/10/02,12:40,0.518,0.789,0.485,0.980,0.707,0.318,0.568,0.530,���k��,5.0,��
2023/10/02,12:50,0.519,0.790,0.484,0.983,0.706,0.318,0.568,0.528,���k��,6.1,��
2023/10/02,13:00,0.519,0.790,0.487,0.980,0.707,0.317,0.568,0.531,���k��,6.1,��
2023/10/02,13:10,0.519,0.791,0.487,0.982,0.706,0.318,0.568,0.530,�k��,7.6,��
2023/10/02,13:20,0.518,0.790,0.486,0.979,0.707,0.318,0.568,0.529,�k��,7.2,��
2023/10/02,13:30,0.520,0.789,0.486,0.979,0.707,0.319,0.568,0.530,�k��,5.4,��
2023/10/02,13:40,0.519,0.789,0.486,0.981,0.705,0.316,0.568,0.530,�k��,3.8,��
2023/10/02,13:50,0.521,0.789,0.487,0.981,0.707,0.319,0.570,0.529,�k��,3.7,��
2023/10/02,14:00,0.518,0.791,0.487,0.980,0.705,0.317,0.566,0.530,���k��,3.6,��
2023/10/02,14:10,0.517,0.790,0.487,0.982,0.706,0.317,0.567,0.529,�k��,4.3,��
2023/10/02,14:20,0.521,0.791,0.487,0.982,0.707,0.318,0.568,0.529,�k��,3.4,��
2023/10/02,14:30,0.519,0.790,0.488,0.984,0.706,0.318,0.569,0.529,���k��,3.1,��
2023/10/02,14:40,0.517,0.791,0.487,0.984,0.708,0.319,0.568,0.529,��,5.2,��
2023/10/02,14:50,0.518,0.791,0.487,0.986,0.707,0.317,0.568,0.528,��,4.6,��
2023/10/02,15:00,0.520,0.791,0.487,0.984,0.706,0.319,0.569,0.528,���k��,5.0,��
2023/10/02,15:10,0.518,0.792,0.488,0.986,0.711,0.319,0.569,0.530,��,5.5,��
2023/10/02,15:20,0.520,0.792,0.488,0.985,0.706,0.318,0.569,0.529,��,4.2,��
2023/10/02,15:30,0.520,0.792,0.488,0.982,0.707,0.318,0.569,0.528,��,4.1,��
2023/10/02,15:40,0.520,0.792,0.488,0.984,0.708,0.319,0.567,0.529,��,4.1,��
2023/10/02,15:50,0.519,0.792,0.488,0.983,0.707,0.319,0.568,0.528,���k��,3.8,��
2023/10/02,16:00,0.518,0.791,0.489,0.983,0.707,0.319,0.567,0.530,���k��,3.2,��
2023/10/02,16:10,0.521,0.793,0.488,0.987,0.708,0.319,0.568,0.529,���k��,5.4,��
2023/10/02,16:20,0.519,0.792,0.487,0.984,0.708,0.320,0.569,0.530,�k��,6.0,��
2023/10/02,16:30,0.519,0.790,0.486,0.982,0.707,0.317,0.568,0.530,�k��,5.7,��
2023/10/02,16:40,0.519,0.790,0.486,0.985,0.706,0.318,0.568,0.529,�k��,5.7,��
2023/10/02,16:50,0.519,0.790,0.487,0.981,0.708,0.317,0.569,0.531,�k��,6.7,��
2023/10/02,17:00,0.519,0.791,0.487,0.982,0.707,0.319,0.569,0.532,�k��,7.4,��
2023/10/02,17:10,0.519,0.792,0.487,0.985,0.708,0.320,0.568,0.532,�k��,7.0,��
2023/10/02,17:20,0.520,0.791,0.486,0.984,0.709,0.319,0.570,0.532,�k��,5.7,��
2023/10/02,17:30,0.522,0.794,0.487,0.986,0.709,0.319,0.570,0.531,�k��,5.4,��
2023/10/02,17:40,0.521,0.796,0.488,0.986,0.709,0.320,0.570,0.531,���k��,7.0,��
2023/10/02,17:50,0.521,0.793,0.488,0.986,0.712,0.320,0.569,0.531,���k��,6.0,��
2023/10/02,18:00,0.520,0.793,0.489,0.986,0.711,0.320,0.570,0.530,���k��,5.8,��
2023/10/02,18:10,0.520,0.794,0.489,0.986,0.711,0.319,0.571,0.531,���k��,4.6,��
2023/10/02,18:20,0.522,0.795,0.489,0.986,0.711,0.319,0.570,0.531,���k��,5.2,��
2023/10/02,18:30,0.521,0.796,0.490,0.984,0.711,0.319,0.571,0.530,���k��,5.5,��
2023/10/02,18:40,0.522,0.794,0.490,0.988,0.711,0.320,0.569,0.530,���k��,5.0,��
2023/10/02,18:50,0.522,0.794,0.489,0.988,0.710,0.319,0.571,0.530,��,3.4,��
2023/10/02,19:00,0.521,0.795,0.488,0.987,0.710,0.319,0.570,0.530,��,4.4,��
2023/10/02,19:10,0.519,0.795,0.490,0.986,0.711,0.320,0.570,0.531,��,3.4,��
2023/10/02,19:20,0.521,0.791,0.490,0.985,0.709,0.321,0.570,0.530,��,3.4,��
2023/10/02,19:30,0.521,0.793,0.489,0.989,0.710,0.320,0.571,0.531,���k��,5.3,��
2023/10/02,19:40,0.521,0.794,0.489,0.986,0.708,0.319,0.570,0.530,��,6.4,��
2023/10/02,19:50,0.520,0.794,0.489,0.988,0.710,0.319,0.570,0.531,��,7.4,��
2023/10/02,20:00,0.522,0.793,0.490,0.986,0.710,0.319,0.569,0.530,��,7.9,��
2023/10/02,20:10,0.521,0.793,0.488,0.988,0.711,0.320,0.570,0.529,��,8.3,��
2023/10/02,20:20,0.521,0.794,0.488,0.986,0.711,0.320,0.567,0.531,���k��,7.6,��
2023/10/02,20:30,0.519,0.796,0.490,0.989,0.709,0.320,0.569,0.529,��,7.3,��
2023/10/02,20:40,0.519,0.795,0.488,0.986,0.709,0.319,0.571,0.532,��,9.1,��
2023/10/02,20:50,0.520,0.794,0.489,0.987,0.710,0.319,0.571,0.531,��,8.5,��
2023/10/02,21:00,0.522,0.792,0.490,0.987,0.710,0.320,0.571,0.531,��,6.9,��
2023/10/02,21:10,0.520,0.794,0.489,0.988,0.710,0.319,0.570,0.531,���k��,8.0,��
2023/10/02,21:20,0.522,0.795,0.488,0.987,0.709,0.320,0.571,0.530,��,9.4,��
2023/10/02,21:30,0.520,0.795,0.491,0.988,0.711,0.319,0.571,0.530,��,10.8,��
2023/10/02,21:40,0.522,0.796,0.490,0.989,0.709,0.320,0.571,0.530,��,7.5,��
2023/10/02,21:50,0.523,0.796,0.490,0.991,0.710,0.318,0.572,0.530,��,7.3,��
2023/10/02,22:00,0.522,0.794,0.488,0.990,0.709,0.320,0.572,0.531,���쐼,6.6,��
2023/10/02,22:10,0.521,0.795,0.490,0.987,0.711,0.319,0.572,0.530,��,7.6,��
2023/10/02,22:20,0.522,0.793,0.490,0.988,0.710,0.319,0.572,0.531,��,11.7,��
2023/10/02,22:30,0.522,0.796,0.490,0.988,0.711,0.319,0.572,0.532,��,11.1,��
2023/10/02,22:40,0.522,0.794,0.490,0.989,0.713,0.320,0.571,0.531,��,11.7,��
2023/10/02,22:50,0.523,0.795,0.490,0.990,0.711,0.318,0.572,0.531,��,11.0,��
2023/10/02,23:00,0.521,0.796,0.491,0.990,0.711,0.318,0.571,0.529,��,10.6,��
2023/10/02,23:10,0.522,0.794,0.489,0.990,0.712,0.319,0.571,0.532,��,10.3,��
2023/10/02,23:20,0.522,0.795,0.490,0.990,0.712,0.319,0.570,0.531,��,9.4,��
2023/10/02,23:30,0.521,0.794,0.490,0.991,0.711,0.320,0.570,0.531,��,8.1,��
2023/10/02,23:40,0.522,0.794,0.489,0.989,0.710,0.320,0.570,0.531,��,8.0,��
2023/10/02,23:50,0.520,0.796,0.489,0.989,0.711,0.319,0.570,0.532,��,7.8,��
